This demonstration page uses our WeatherBlox Daily Observations layout. Learn more.

Left ArrowRight Arrow

39.01783, -85.05884

Hourly Observations for April 10, 2018

Temp ( °F °C ) Dew Point ( °F °C ) Humidity (%) Winds ( mph kmh ) Pressure ( in mb ) Visibility ( mi km ) Precip ( " mm )
12:52 am 00:52 Cloudy 38 3.3 31 -0.6 76 76 N 5 7 30.22 1023 10 16 N/A
1:52 am 01:52 Cloudy 38 3.3 30 -1.1 73 73 NNW 5 7 30.22 1024 10 16 N/A
2:52 am 02:52 Cloudy 37 2.8 30 -1.1 76 76 NNW 3 6 30.23 1024 10 16 N/A
3:52 am 03:52 Mostly Cloudy 35 1.7 30 -1.1 82 82 NW 3 6 30.24 1024 10 16 N/A
4:52 am 04:52 Mostly Clear 34 1.1 30 -1.1 85 85 N N/A 30.24 1024 10 16 N/A
5:52 am 05:52 Partly Cloudy 35 1.7 30 -1.1 82 82 N 5 7 30.25 1024 10 16 N/A
6:52 am 06:52 Mostly Clear 34 1.1 30 -1.1 85 85 N 6 9 30.26 1025 9 14 N/A
7:52 am 07:52 Sunny with Mist and Fog 32 undefined 30 -1.1 92 92 N 6 9 30.27 1025 6 10 N/A
8:52 am 08:52 Sunny 38 3.3 32 undefined 79 79 N 5 7 30.29 1026 7 11 N/A
9:52 am 09:52 Mostly Sunny 40 4.4 30 -1.1 68 68 N N/A 30.29 1026 10 16 N/A
10:52 am 10:52 Mostly Cloudy 43 6.1 30 -1.1 60 60 N N/A 30.29 1026 10 16 N/A
11:52 am 11:52 Cloudy 42 5.6 26 -3.3 53 53 VRB 3 6 30.29 1026 10 16 N/A
12:52 pm 12:52 Cloudy 43 6.1 28 -2.2 56 56 VRB 6 9 30.28 1026 10 16 N/A
1:52 pm 13:52 Cloudy 44 6.7 28 -2.2 53 53 WNW 8 13 30.26 1025 10 16 N/A
2:52 pm 14:52 Cloudy 45 7.2 27 -2.8 49 49 NNW 6 9 30.24 1024 10 16 N/A
3:52 pm 15:52 Cloudy 45 7.2 27 -2.8 49 49 NNW 6 9 30.23 1024 10 16 N/A
4:52 pm 16:52 Cloudy 45 7.2 26 -3.3 48 48 NNW 6 9 30.22 1023 10 16 N/A
5:52 pm 17:52 Cloudy 44 6.7 26 -3.3 49 49 NW 8 13 30.21 1023 10 16 N/A
6:52 pm 18:52 Cloudy 44 6.7 26 -3.3 49 49 NW 8 13 30.21 1023 10 16 N/A
7:52 pm 19:52 Cloudy 43 6.1 27 -2.8 53 53 NW 7 11 30.21 1023 10 16 N/A
8:52 pm 20:52 Cloudy 41 5 27 -2.8 57 57 NW 7 11 30.21 1023 10 16 N/A
9:52 pm 21:52 Partly Cloudy 39 3.9 27 -2.8 62 62 NW 3 6 30.21 1023 10 16 N/A
10:52 pm 22:52 Mostly Clear 34 1.1 27 -2.8 76 76 N N/A 30.20 1023 10 16 N/A

Powered by AerisWeather